Content
SEND FEEDBACK

Daily
Averages
Monthly
Summary
United States of America

RAPID CITY, SOUTH DAKOTA


Home > North America > United States > South Dakota
Elevation: 3162 feet     Latitude: 44 03N     Longitude: 103 04W

WEATHER
 
SELECT A DAY
Number of Records: 200,148;   Date Range: 1/1/95 - 7/7/14
 
SHARE

PRINT THIS DATA

[ ← Previous Day ]
WEATHER ALMANAC - DECEMBER 8, 2013
[ Next Day → ]
[ °C ]   °F
Weather ElementAverageHighLow
Temperature-4.5 °F5 °F (8:52 pm)-9.4 °F (7:30 am)
Dewpoint-11.2 °F-5.1 °F (8:52 pm)-16.1 °F (8:52 am)
Humidity73.2 %84 % (6:26 am)63 % (12:52 pm)
Barometer30.15 in30.32 in (9:52 pm)29.89 in (7:04 am)
Wind Speed5.6 mph10.4 mph (6:52 am)
Weather ElementAverage
Visibility7.9 mi
Wind DirectionSW (224.1 °)

Weather ElementTotal
Precipitation0.04 in
Heating Degree Days67.2 (Base 65)
Averaged from 29 records on December 8, 2013
WEATHER CONDITIONS BREAKOUT
WIND DIRECTION BREAKOUT
WEATHER BY HOUR - DECEMBER 8, 2013
[ °C ]   °F
Local TimeTemperatureDewpointHumidityBarometerVisibilityWind DirectionWind SpeedGust SpeedPrecipitationEventsConditions
12:50 AM-5.8 °F-11.2 °F77 %29.97 in4.0 miSE (140°)4.6 mph0.01 inSnowLight Snow
12:52 AM-6.0 °F-11.9 °F75 %30.25 in6.0 miSE (130°)4.6 mph0.01 inSnowLight Snow
1:52 AM-6.0 °F-11.0 °F79 %30.23 in4.0 miESE (110°)3.5 mph0.00 inSnowLight Snow
2:52 AM-6.0 °F-11.0 °F79 %30.21 in5.0 miCalm0.00 inSnowLight Snow
5:52 AM-6.0 °F-11.9 °F75 %30.17 in2.5 miNorth (10°)5.8 mph0.00 inSnowLight Snow
6:26 AM-7.6 °F-11.2 °F84 %29.90 in3.0 miNorth (350°)9.2 mph0.01 inSnowLight Snow
6:52 AM-7.1 °F-13.0 °F75 %30.17 in2.5 miNorth (350°)10.4 mph0.01 inSnowLight Snow
7:04 AM-7.6 °F-13.0 °F77 %29.89 in4.0 miNorth (350°)10.4 mph0.00 inSnowLight Snow
7:16 AM-7.6 °F-13.0 °F77 %29.89 in4.0 miNNW (340°)8.1 mph0.00 inSnowLight Snow
7:30 AM-9.4 °F-14.8 °F77 %29.89 in9.0 miNNW (330°)8.1 mph0.00 inMostly Cloudy
7:52 AM-9.0 °F-15.0 °F75 %30.18 in7.0 miNorth (360°)6.9 mph0.00 inMostly Cloudy
8:12 AM-9.4 °F-14.8 °F77 %29.91 in9.0 miNorth (350°)6.9 mphOvercast
8:25 AM-9.4 °F-14.8 °F77 %29.91 in10.0 miNorth (360°)10.4 mphMostly Cloudy
8:52 AM-8.0 °F-16.1 °F68 %30.21 in8.0 miNorth (360°)8.1 mph0.00 inSnowLight Snow
9:52 AM-6.0 °F-15.0 °F65 %30.20 in10.0 miNNW (340°)3.5 mph0.00 inScattered Clouds
10:52 AM-5.1 °F-14.1 °F65 %30.19 in10.0 miNNW (330°)4.6 mphOvercast
11:52 AM-2.9 °F-11.9 °F65 %30.15 in10.0 miNW (320°)4.6 mphPartly Cloudy
12:52 PM0.0 °F-9.9 °F63 %30.14 in10.0 miWNW (300°)4.6 mphPartly Cloudy
1:52 PM1.0 °F-8.0 °F66 %30.15 in10.0 miWSW (240°)3.5 mphClear
2:52 PM3.0 °F-7.1 °F63 %30.18 in10.0 miSouth (170°)5.8 mphClear
3:52 PM0.0 °F-9.0 °F66 %30.19 in10.0 miSouth (180°)5.8 mphClear
4:52 PM-7.1 °F-11.9 °F79 %30.24 in10.0 miCalmClear
5:52 PM-5.1 °F-9.9 °F80 %30.26 in10.0 miCalmPartly Cloudy
6:52 PM1.0 °F-7.1 °F69 %30.27 in10.0 miNNW (330°)10.4 mphClear
7:52 PM0.0 °F-7.1 °F72 %30.30 in10.0 miNorth (350°)9.2 mphClear
8:52 PM5.0 °F-5.1 °F63 %30.30 in10.0 miNW (310°)10.4 mphClear
9:52 PM-0.9 °F-8.0 °F72 %30.32 in10.0 miCalmClear
10:52 PM-4.0 °F-8.0 °F83 %30.32 in10.0 miCalmClear
11:52 PM-5.1 °F-9.9 °F80 %30.32 in10.0 miEast (90°)3.5 mphClear
Hourly data recorded from KRAP, located miles away from Rapid City, South Dakota







STORIES FROM OUR PARTNERS